Tracking 30685 objects as of 17-Jun-2025
HD Live streaming from Space Station
objects crossing your sky now

USA 274 DEB

Track USA 274 DEB now!
10-day predictions
USA 274 DEB is classified as:


NORAD ID: 42065
Int'l Code: 2017-011B
Perigee: 986.1 km
Apogee: 1,239.5 km
Inclination: 63.5 °
Period: 107.4 minutes
Semi major axis: 7483 km
RCS: Unknown
Launch date: March 1, 2017
Source: United States (US)
Launch site: AIR FORCE WESTERN TEST RANGE (AFWTR)

Note: This is SATELLITE DEBRIS
Your satellite tracking list
Your tracking list is empty




NASA's NSSDC Master Catalog

Two Line Element Set (TLE):
1 42065U 17011B   25143.87049499 0.00000000  00000-0  00000-0 0    05
2 42065  63.4622  63.5132 0169321   3.6634 355.9400 13.40972911    09
Source of the keplerian elements: McCants